QPF
0.00 0.00 0.00 0.00 0.00 0.00 0.00 0.00 0.00 0.00 0.00 0.00 0.00 0.00 0.02 0.02 0.01 0.00 0.01 0.03 0.00 0.00 0.00 0.00 0.00 0.00 0.00 0.00 0.00 0.00 0.00 0.00 0.00 0.00 0.00 0.00 0.00 0.00 0.00 0.00 0.00 0.00 0.00
0.00 0.00 0.00 0.00 0.00 0.00 0.00 0.00 0.00 0.00 0.00 0.00 0.00 0.00 0.01 0.00 0.02 0.00 0.00 0.00 0.00 0.00 0.00 0.00 0.00 0.00 0.00 0.00 0.00 0.00 0.00 0.00 0.00 0.01 0.00 0.00 0.00 0.00 0.00 0.00 0.00 0.00 0.00
0.00 0.00 0.00 0.00 0.00 0.00 0.00 0.00 0.00 0.00 0.00 0.00 0.00 0.00 0.00 0.00 0.00 0.00 0.00 0.00 0.00 0.00 0.01 0.00 0.01 0.00 0.00 0.00 0.00 0.00 0.00 0.00 0.00 0.00 0.00 0.00 0.00 0.00 0.00 0.00 0.00 0.00 0.00
0.00 0.00 0.00 0.00 0.00 0.00 0.00 0.00 0.00 0.00 0.00 0.00 0.00 0.00 0.00 0.00 0.00 0.00 0.00 0.00 0.05 0.27 0.35 0.28 0.18 0.06 0.00 0.00 0.00 0.00 0.00 0.00 0.00 0.00 0.00 0.00 0.00 0.00 0.00 0.00 0.00 0.00 0.00
0.00 0.00 0.00 0.00 0.00 0.00 0.00 0.00 0.00 0.00 0.00 0.00 0.00 0.00 0.00 0.00 0.00 0.00 0.00 0.19 0.60 0.72 0.60 0.54 0.43 0.29 0.18 0.02 0.00 0.00 0.00 0.00 0.00 0.00 0.00 0.00 0.00 0.00 0.00 0.00 0.00 0.00 0.00
0.00 0.00 0.00 0.00 0.00 0.00 0.00 0.00 0.00 0.00 0.00 0.00 0.00 0.00 0.00 0.01 0.00 0.00 0.12 0.75 0.82 0.64 0.72 0.52 0.35 0.23 0.34 0.22 0.01 0.00 0.00 0.00 0.00 0.00 0.00 0.00 0.00 0.00 0.00 0.00 0.00 0.00 0.00
0.00 0.00 0.00 0.00 0.02 0.04 0.05 0.06 0.05 0.06 0.09 0.12 0.11 0.14 0.16 0.17 0.09 0.29 0.94 0.80 0.87 1.19 1.13 0.36 0.08 0.02 0.03 0.02 0.01 0.01 0.00 0.00 0.00 0.00 0.00 0.00 0.00 0.00 0.00 0.00 0.00 0.00 0.00
0.00 0.00 0.00 0.00 0.01 0.01 0.00 0.00 0.00 0.00 0.01 0.02 0.03 0.04 0.06 0.06 0.09 0.33 0.55 0.41 0.15 0.18 0.16 0.06 0.00 0.00 0.00 0.00 0.00 0.00 0.00 0.00 0.00 0.00 0.00 0.00 0.00 0.00 0.00 0.00 0.00 0.00 0.00
0.00 0.00 0.00 0.00 0.00 0.00 0.00 0.00 0.00 0.00 0.00 0.00 0.00 0.00 0.00 0.00 0.00 0.03 0.09 0.03 0.01 0.03 0.04 0.03 0.00 0.00 0.00 0.00 0.00 0.00 0.00 0.00 0.00 0.00 0.00 0.00 0.00 0.00 0.00 0.00 0.00 0.00 0.00
0.00 0.00 0.00 0.00 0.00 0.00 0.00 0.00 0.00 0.00 0.00 0.00 0.00 0.00 0.00 0.00 0.00 0.00 0.01 0.00 0.00 0.01 0.02 0.02 0.01 0.00 0.00 0.00 0.00 0.00 0.00 0.00 0.00 0.00 0.00 0.00 0.00 0.00 0.00 0.00 0.00 0.00 0.00
0.00 0.00 0.00 0.00 0.00 0.00 0.00 0.00 0.00 0.00 0.00 0.00 0.00 0.00 0.00 0.00 0.00 0.00 0.01 0.00 0.00 0.00 0.00 0.01 0.01 0.01 0.00 0.00 0.00 0.00 0.00 0.00 0.00 0.00 0.00 0.00 0.00 0.00 0.00 0.00 0.00 0.00 0.00
0.00 0.00 0.00 0.00 0.00 0.00 0.00 0.00 0.00 0.00 0.00 0.00 0.01 0.00 0.00 0.00 0.00 0.00 0.01 0.02 0.02 0.00 0.00 0.00 0.00 0.00 0.00 0.00 0.00 0.00 0.00 0.00 0.00 0.00 0.00 0.00 0.00 0.00 0.00 0.00 0.00 0.00 0.00
0.00 0.00 0.00 0.00 0.00 0.00 0.00 0.00 0.00 0.01 0.01 0.00 0.00 0.00 0.00 0.00 0.00 0.04 0.07 0.04 0.02 0.01 0.00 0.00 0.01 0.01 0.01 0.01 0.00 0.00 0.00 0.00 0.00 0.00 0.00 0.00 0.00 0.00 0.00 0.00 0.00 0.00 0.00
0.01 0.00 0.00 0.00 0.00 0.00 0.00 0.00 0.00 0.00 0.00 0.00 0.00 0.00 0.00 0.00 0.01 0.02 0.02 0.01 0.00 0.00 0.00 0.00 0.00 0.01 0.02 0.02 0.02 0.03 0.01 0.00 0.00 0.01 0.00 0.00 0.00 0.00 0.00 0.00 0.00 0.00 0.00
0.00 0.00 0.00 0.00 0.00 0.00 0.00 0.00 0.00 0.00 0.00 0.00 0.00 0.00 0.00 0.00 0.00 0.00 0.01 0.04 0.02 0.01 0.00 0.00 0.00 0.00 0.00 0.00 0.00 0.01 0.02 0.02 0.01 0.02 0.04 0.02 0.02 0.01 0.00 0.00 0.00 0.00 0.00
0.00 0.00 0.02 0.00 0.00 0.00 0.00 0.00 0.00 0.00 0.00 0.00 0.00 0.00 0.00 0.00 0.00 0.00 0.00 0.00 0.00 0.00 0.00 0.00 0.00 0.00 0.00 0.00 0.01 0.01 0.02 0.05 0.06 0.06 0.06 0.05 0.04 0.02 0.01 0.01 0.00 0.00 0.00
0.00 0.00 0.00 0.00 0.00 0.00 0.00 0.00 0.00 0.00 0.00 0.00 0.00 0.00 0.02 0.00 0.00 0.00 0.00 0.00 0.00 0.00 0.00 0.00 0.00 0.00 0.00 0.00 0.00 0.00 0.00 0.01 0.04 0.05 0.04 0.05 0.04 0.03 0.02 0.01 0.00 0.00 0.00
0.00 0.00 0.00 0.00 0.00 0.00 0.00 0.00 0.00 0.00 0.00 0.00 0.00 0.00 0.00 0.00 0.00 0.00 0.00 0.00 0.00 0.00 0.00 0.00 0.00 0.00 0.00 0.00 0.00 0.00 0.01 0.01 0.01 0.01 0.02 0.04 0.04 0.03 0.02 0.01 0.00 0.00 0.00
0.00 0.00 0.00 0.00 0.00 0.00 0.00 0.00 0.00 0.00 0.00 0.00 0.00 0.00 0.00 0.00 0.00 0.00 0.00 0.00 0.00 0.00 0.00 0.00 0.00 0.00 0.00 0.00 0.00 0.00 0.00 0.00 0.01 0.01 0.01 0.01 0.02 0.02 0.02 0.01 0.00 0.00 0.00
0.00 0.00 0.00 0.00 0.00 0.00 0.00 0.00 0.00 0.00 0.00 0.00 0.00 0.00 0.00 0.00 0.00 0.00 0.00 0.00 0.00 0.00 0.00 0.01 0.01 0.00 0.01 0.01 0.02 0.01 0.00 0.00 0.00 0.00 0.00 0.01 0.01 0.01 0.02 0.02 0.01 0.00 0.00
0.00 0.00 0.00 0.00 0.00 0.00 0.00 0.00 0.00 0.00 0.00 0.00 0.00 0.00 0.00 0.00 0.00 0.00 0.00 0.00 0.00 0.00 0.00 0.01 0.01 0.01 0.01 0.01 0.02 0.02 0.02 0.00 0.00 0.00 0.00 0.00 0.01 0.02 0.02 0.02 0.01 0.01 0.01
0.00 0.00 0.00 0.00 0.00 0.00 0.00 0.00 0.00 0.00 0.00 0.00 0.00 0.00 0.00 0.00 0.00 0.00 0.00 0.00 0.00 0.00 0.00 0.01 0.01 0.02 0.03 0.03 0.03 0.03 0.04 0.04 0.01 0.00 0.00 0.00 0.00 0.01 0.02 0.03 0.03 0.02 0.01
0.00 0.00 0.00 0.00 0.00 0.00 0.00 0.00 0.00 0.00 0.00 0.00 0.00 0.00 0.00 0.00 0.00 0.00 0.00 0.00 0.01 0.01 0.00 0.01 0.01 0.01 0.01 0.02 0.04 0.05 0.05 0.05 0.05 0.05 0.03 0.01 0.01 0.02 0.03 0.05 0.07 0.09 0.08
0.00 0.00 0.00 0.00 0.00 0.00 0.00 0.00 0.00 0.00 0.00 0.00 0.00 0.00 0.00 0.00 0.00 0.00 0.00 0.00 0.01 0.00 0.00 0.00 0.01 0.01 0.01 0.02 0.03 0.04 0.05 0.04 0.05 0.05 0.04 0.03 0.03 0.02 0.03 0.05 0.06 0.10 0.18
0.00 0.00 0.00 0.00 0.00 0.00 0.00 0.00 0.00 0.00 0.00 0.00 0.00 0.00 0.00 0.00 0.00 0.00 0.00 0.00 0.00 0.00 0.01 0.02 0.03 0.03 0.02 0.02 0.03 0.04 0.06 0.08 0.07 0.07 0.06 0.06 0.05 0.04 0.02 0.01 0.02 0.03 0.07
0.00 0.00 0.00 0.00 0.00 0.00 0.00 0.00 0.00 0.00 0.00 0.00 0.00 0.00 0.00 0.00 0.00 0.00 0.00 0.00 0.00 0.01 0.02 0.03 0.04 0.06 0.10 0.11 0.10 0.08 0.07 0.07 0.07 0.09 0.09 0.08 0.06 0.05 0.05 0.03 0.03 0.02 0.02
MSLP
1010.96 1011.71 1012.24 1012.67 1013.17 1013.54 1013.65 1013.66 1013.78 1013.85 1013.86 1013.85 1014.08 1014.56 1015.07 1015.46 1015.81 1016.15 1016.32 1016.53 1016.76 1017.04 1017.03 1017.05 1017.04 1017.03 1016.94 1016.70 1016.73 1016.73 1017.08 1017.30 1017.86 1018.10 1018.70 1019.28 1019.86 1020.52 1021.13 1021.39 1021.95 1022.32 1022.59
1010.57 1011.16 1011.68 1012.34 1012.65 1012.95 1013.39 1013.56 1013.75 1013.92 1014.01 1014.16 1014.34 1014.72 1015.05 1015.18 1015.41 1015.75 1016.04 1016.20 1016.38 1016.54 1016.76 1016.86 1016.93 1017.06 1017.02 1016.88 1016.98 1016.85 1016.82 1016.87 1017.13 1017.98 1018.74 1019.40 1019.87 1020.24 1020.91 1021.29 1021.56 1021.56 1021.79
1010.36 1011.15 1011.59 1012.10 1012.43 1012.79 1013.04 1013.35 1013.26 1013.49 1013.74 1013.97 1014.22 1014.46 1014.75 1014.87 1015.01 1015.24 1015.44 1015.54 1015.73 1016.16 1016.64 1016.90 1016.96 1017.10 1017.06 1016.92 1016.83 1016.85 1016.78 1016.92 1016.99 1017.44 1018.56 1019.04 1019.57 1020.12 1020.92 1021.08 1021.01 1020.91 1020.75
1010.45 1011.29 1011.64 1012.16 1012.62 1012.75 1013.08 1013.02 1012.95 1013.14 1013.31 1013.50 1013.71 1013.92 1014.21 1014.44 1014.54 1014.59 1014.62 1014.89 1015.37 1017.04 1018.21 1018.31 1017.83 1017.40 1017.05 1016.92 1016.90 1016.64 1016.62 1016.77 1016.93 1017.25 1017.90 1018.69 1019.10 1019.54 1020.02 1020.80 1021.02 1020.87 1021.33
1010.75 1011.08 1011.42 1011.78 1012.12 1012.37 1012.56 1012.68 1012.79 1012.92 1013.07 1013.25 1013.40 1013.46 1013.60 1013.75 1013.72 1013.70 1013.84 1014.43 1017.19 1017.45 1017.97 1018.18 1018.94 1017.65 1017.45 1016.72 1016.29 1016.78 1016.62 1016.53 1016.49 1016.96 1017.45 1017.79 1018.44 1019.09 1019.46 1019.90 1020.38 1020.50 1020.63
1010.74 1011.15 1011.47 1011.86 1012.11 1012.32 1012.54 1012.75 1012.86 1012.90 1013.00 1013.13 1013.12 1013.10 1013.18 1013.17 1012.86 1012.91 1013.06 1015.16 1015.92 1015.44 1015.46 1016.36 1016.09 1016.83 1016.74 1016.14 1016.42 1016.58 1016.24 1016.31 1016.28 1016.23 1016.67 1017.07 1017.35 1018.04 1018.79 1019.38 1019.92 1020.24 1020.37
1010.75 1011.13 1011.41 1011.69 1011.90 1012.08 1012.20 1012.44 1012.56 1012.64 1012.81 1012.76 1012.80 1012.77 1012.79 1012.75 1012.68 1012.55 1013.20 1014.16 1015.28 1015.67 1014.04 1014.12 1014.42 1015.11 1015.86 1016.67 1016.27 1016.62 1016.26 1016.24 1016.36 1016.19 1016.50 1016.46 1016.52 1016.90 1017.66 1018.53 1019.01 1019.39 1019.62
1010.52 1010.72 1011.00 1011.27 1011.53 1011.71 1011.80 1011.96 1011.86 1011.88 1012.03 1012.17 1012.23 1012.18 1012.18 1012.21 1012.13 1012.50 1013.18 1014.20 1013.94 1013.90 1013.84 1013.49 1014.33 1014.95 1015.12 1015.84 1015.90 1015.88 1015.82 1015.87 1015.70 1015.91 1016.22 1016.54 1016.32 1016.26 1016.61 1017.18 1018.04 1018.70 1019.03
1010.28 1010.60 1010.81 1010.99 1011.17 1011.34 1011.46 1011.56 1011.66 1011.80 1011.92 1011.90 1011.75 1011.64 1011.67 1011.66 1011.78 1012.26 1012.96 1013.52 1013.76 1013.85 1013.65 1013.54 1013.96 1014.28 1014.54 1015.23 1015.59 1015.54 1015.96 1015.91 1015.58 1015.69 1015.96 1016.01 1016.00 1015.90 1016.23 1017.04 1017.83 1018.47 1019.11
1009.98 1010.38 1010.56 1010.82 1011.15 1011.36 1011.58 1011.66 1011.75 1011.82 1011.83 1011.75 1011.62 1011.42 1011.36 1011.24 1011.42 1011.78 1012.36 1012.78 1013.04 1013.12 1013.28 1013.51 1013.86 1013.90 1014.17 1015.01 1014.88 1015.15 1015.38 1015.19 1015.30 1015.46 1015.74 1015.76 1015.86 1015.83 1016.03 1016.50 1017.30 1018.12 1018.59
1010.20 1010.72 1011.14 1011.20 1011.41 1011.64 1011.83 1011.77 1011.73 1011.75 1011.65 1011.54 1011.37 1011.20 1010.94 1010.71 1010.70 1011.01 1011.48 1011.68 1011.79 1012.16 1012.46 1012.74 1013.05 1013.34 1013.99 1014.24 1014.50 1014.70 1014.54 1014.76 1015.01 1015.30 1015.45 1015.56 1015.86 1016.00 1016.07 1016.24 1016.71 1017.32 1017.84
1010.22 1010.80 1011.22 1011.41 1011.52 1011.68 1011.72 1011.77 1011.69 1011.57 1011.46 1011.25 1011.08 1010.74 1010.28 1009.98 1009.68 1010.19 1010.55 1010.96 1011.27 1011.73 1011.80 1012.14 1012.42 1012.80 1013.17 1013.59 1013.97 1014.12 1014.21 1014.37 1014.60 1014.72 1014.98 1015.20 1015.40 1015.70 1015.88 1016.01 1016.42 1016.74 1016.92
1010.18 1010.76 1011.10 1011.24 1011.51 1011.57 1011.60 1011.54 1011.46 1011.14 1010.94 1010.88 1010.74 1010.62 1010.52 1010.09 1009.51 1010.55 1011.41 1011.68 1011.91 1012.02 1011.78 1011.98 1012.29 1012.34 1012.51 1012.95 1013.34 1013.78 1013.92 1014.14 1014.22 1014.24 1014.18 1014.22 1014.46 1014.92 1015.18 1015.84 1016.20 1016.46 1016.85
1010.22 1010.67 1011.07 1011.25 1011.22 1011.22 1011.18 1011.00 1010.86 1010.63 1010.69 1010.76 1010.82 1010.82 1010.79 1010.81 1011.18 1011.26 1011.65 1011.89 1011.99 1012.19 1012.01 1011.90 1011.94 1012.18 1012.55 1012.76 1012.99 1013.36 1013.64 1013.62 1013.59 1013.51 1013.65 1013.53 1013.85 1014.20 1014.66 1015.19 1015.93 1016.38 1016.90
1010.31 1010.71 1010.86 1010.87 1010.76 1010.77 1010.75 1010.65 1010.64 1010.52 1010.75 1010.90 1010.91 1010.88 1010.91 1011.00 1011.14 1011.61 1011.61 1011.49 1011.46 1011.22 1011.25 1011.47 1011.59 1011.85 1012.14 1012.23 1012.44 1012.59 1012.86 1013.16 1013.41 1013.33 1013.50 1013.60 1013.54 1013.65 1013.88 1014.52 1015.21 1015.77 1016.31
1010.50 1010.72 1010.95 1011.01 1010.76 1010.77 1010.68 1010.46 1010.43 1010.65 1010.62 1010.70 1010.74 1011.13 1011.10 1011.26 1011.24 1011.59 1012.18 1012.07 1011.63 1011.23 1011.16 1011.02 1011.14 1011.19 1011.30 1011.51 1011.65 1011.82 1012.08 1012.26 1012.44 1012.82 1013.10 1013.35 1013.62 1013.44 1013.58 1013.89 1014.49 1015.03 1015.51
1011.02 1011.14 1011.02 1010.99 1010.98 1010.85 1010.72 1010.72 1010.76 1010.68 1010.74 1010.88 1011.22 1011.45 1011.66 1012.21 1012.04 1011.85 1012.04 1011.82 1011.45 1011.26 1011.05 1010.42 1010.19 1010.22 1010.30 1010.43 1010.61 1010.86 1010.90 1010.99 1011.35 1011.85 1012.18 1012.43 1012.95 1013.24 1013.16 1013.46 1013.77 1014.32 1014.62
1011.06 1011.10 1011.22 1011.22 1011.19 1011.10 1011.15 1011.18 1011.09 1011.23 1011.30 1011.34 1011.34 1011.54 1011.97 1012.36 1012.31 1012.19 1012.09 1011.63 1011.25 1010.92 1010.17 1009.48 1009.23 1009.23 1009.26 1009.32 1009.51 1009.75 1009.98 1010.34 1010.64 1010.82 1011.07 1011.42 1011.88 1012.30 1012.40 1012.50 1012.69 1013.09 1013.59
1011.07 1011.32 1011.62 1011.75 1011.63 1011.55 1011.48 1011.52 1011.53 1011.72 1011.87 1011.80 1011.63 1011.74 1012.35 1012.46 1012.34 1012.16 1012.23 1011.87 1011.22 1010.38 1009.48 1008.63 1008.05 1007.69 1007.48 1007.67 1008.03 1008.36 1008.83 1009.16 1009.37 1009.77 1010.05 1010.36 1010.56 1010.88 1011.34 1011.46 1011.71 1012.24 1012.65
1011.28 1011.76 1011.95 1011.94 1011.70 1011.56 1011.62 1011.95 1012.18 1012.50 1012.35 1012.26 1012.31 1012.60 1012.96 1012.79 1012.62 1012.44 1012.25 1012.04 1011.56 1010.77 1009.80 1008.85 1007.98 1007.30 1006.86 1006.46 1006.68 1007.26 1007.52 1007.74 1008.28 1008.68 1008.87 1009.07 1009.27 1009.48 1009.92 1010.44 1010.73 1010.99 1011.56
1011.20 1011.72 1011.76 1011.69 1012.20 1012.23 1012.38 1012.58 1012.88 1012.72 1013.02 1013.04 1013.21 1013.54 1013.66 1013.42 1013.34 1013.22 1012.82 1012.30 1011.85 1011.16 1010.18 1009.15 1008.20 1007.76 1007.22 1006.64 1006.29 1006.20 1006.33 1006.86 1006.74 1007.24 1007.62 1007.91 1008.26 1008.43 1008.69 1009.22 1009.63 1009.86 1010.44
1011.18 1011.52 1012.15 1012.48 1012.72 1012.86 1013.07 1013.06 1013.12 1013.46 1013.72 1014.03 1013.95 1013.73 1014.13 1014.38 1014.12 1013.68 1013.06 1012.51 1011.96 1011.26 1010.59 1009.48 1008.49 1007.69 1006.98 1006.37 1005.90 1005.59 1005.52 1005.36 1005.70 1005.59 1006.10 1006.38 1006.85 1007.32 1007.76 1007.98 1008.38 1008.80 1009.31
1011.85 1012.23 1012.47 1013.13 1013.24 1013.43 1013.42 1013.38 1013.99 1014.48 1014.81 1014.86 1014.80 1014.83 1015.03 1014.74 1014.56 1014.22 1013.66 1013.04 1012.26 1011.41 1010.58 1009.66 1008.66 1007.76 1006.71 1005.75 1005.20 1004.90 1004.71 1004.42 1004.26 1004.58 1004.59 1005.05 1005.56 1006.06 1006.65 1007.06 1007.56 1007.97 1008.26
1012.87 1012.88 1013.07 1013.21 1013.41 1013.85 1014.09 1014.32 1014.90 1015.41 1015.70 1015.78 1015.90 1015.88 1015.67 1015.36 1014.89 1014.36 1013.87 1013.20 1012.42 1011.51 1010.54 1009.50 1008.48 1007.49 1006.32 1005.21 1004.40 1003.71 1003.70 1003.47 1003.05 1002.98 1003.39 1003.85 1004.43 1004.94 1005.34 1005.88 1006.35 1006.90 1007.43
1013.47 1013.47 1013.46 1013.63 1013.94 1014.29 1014.74 1015.25 1015.72 1016.15 1016.35 1016.40 1016.33 1016.18 1016.07 1015.66 1015.17 1014.55 1013.93 1013.22 1012.42 1011.47 1010.34 1009.14 1007.98 1006.83 1005.63 1004.50 1003.39 1002.89 1002.41 1002.56 1002.47 1002.04 1002.48 1002.48 1003.01 1003.40 1004.01 1004.46 1005.04 1005.82 1006.53
1013.85 1013.84 1013.99 1014.22 1014.60 1014.92 1015.26 1015.67 1016.12 1016.49 1016.65 1016.42 1016.32 1016.16 1016.12 1015.78 1015.34 1014.69 1013.93 1013.13 1012.25 1011.21 1010.19 1009.12 1007.96 1006.72 1005.62 1004.10 1002.95 1002.11 1001.84 1001.66 1001.80 1001.61 1001.72 1001.01 1001.76 1002.13 1002.65 1003.27 1003.77 1004.37 1005.04
Thickness
5832 5823 5816 5808 5805 5806 5808 5811 5812 5814 5815 5816 5814 5809 5804 5800 5797 5794 5791 5788 5784 5780 5780 5778 5777 5778 5778 5779 5778 5777 5772 5768 5756 5760 5758 5753 5749 5744 5739 5737 5733 5731 5729
5834 5826 5818 5807 5801 5807 5808 5810 5812 5811 5813 5812 5810 5806 5803 5801 5799 5794 5790 5788 5784 5780 5778 5776 5774 5774 5773 5775 5773 5772 5771 5770 5765 5755 5752 5746 5742 5740 5735 5734 5732 5732 5730
5834 5824 5819 5814 5813 5811 5811 5811 5815 5815 5813 5812 5809 5805 5802 5800 5799 5796 5792 5791 5788 5783 5775 5771 5770 5769 5767 5769 5769 5768 5768 5766 5764 5759 5750 5747 5743 5739 5730 5729 5731 5733 5733
5829 5820 5817 5814 5812 5812 5811 5813 5816 5816 5814 5812 5811 5807 5804 5801 5800 5799 5798 5793 5787 5767 5755 5754 5758 5760 5762 5761 5760 5764 5765 5762 5760 5755 5752 5745 5741 5740 5735 5725 5724 5728 5724
5823 5820 5816 5816 5815 5814 5814 5814 5815 5815 5813 5811 5809 5808 5806 5803 5803 5802 5800 5791 5762 5761 5754 5752 5739 5748 5746 5751 5759 5752 5757 5758 5757 5752 5748 5747 5740 5734 5732 5730 5724 5725 5726
5822 5818 5817 5814 5813 5812 5811 5811 5810 5810 5809 5808 5807 5806 5804 5804 5807 5805 5800 5778 5773 5769 5766 5751 5736 5739 5739 5743 5743 5745 5750 5748 5751 5753 5748 5746 5744 5739 5734 5730 5723 5719 5714
5821 5818 5815 5813 5810 5810 5811 5810 5808 5807 5807 5805 5804 5803 5801 5801 5802 5801 5789 5769 5758 5758 5773 5773 5766 5756 5749 5739 5735 5731 5736 5739 5740 5747 5744 5745 5746 5745 5738 5729 5725 5721 5718
5821 5820 5819 5815 5812 5812 5811 5810 5811 5811 5808 5806 5805 5804 5803 5803 5802 5796 5785 5771 5773 5771 5771 5774 5766 5760 5760 5748 5740 5735 5733 5735 5738 5740 5742 5740 5744 5745 5743 5738 5729 5723 5720
5819 5816 5815 5815 5812 5810 5808 5808 5809 5807 5805 5804 5805 5804 5802 5802 5800 5793 5784 5776 5771 5769 5772 5773 5768 5766 5762 5750 5743 5742 5735 5736 5737 5738 5737 5740 5742 5743 5740 5734 5724 5715 5707
5819 5815 5815 5813 5808 5806 5804 5802 5803 5802 5800 5801 5800 5802 5800 5798 5794 5790 5784 5780 5775 5775 5772 5767 5762 5763 5759 5748 5751 5745 5737 5739 5735 5734 5736 5740 5742 5740 5737 5733 5724 5712 5707
5815 5810 5806 5806 5803 5800 5798 5799 5798 5796 5796 5795 5794 5796 5797 5797 5796 5789 5784 5783 5778 5774 5771 5769 5766 5763 5757 5752 5750 5746 5745 5744 5740 5736 5736 5736 5733 5732 5732 5730 5724 5716 5708
5811 5804 5801 5800 5799 5797 5794 5793 5793 5791 5789 5789 5789 5791 5795 5796 5796 5789 5784 5780 5777 5771 5767 5765 5763 5759 5755 5751 5748 5746 5743 5742 5740 5737 5735 5732 5730 5727 5725 5724 5720 5713 5712
5807 5800 5797 5796 5794 5792 5789 5787 5785 5787 5785 5784 5782 5781 5781 5785 5790 5779 5769 5765 5762 5761 5762 5757 5754 5753 5750 5748 5743 5739 5738 5736 5733 5732 5733 5732 5730 5726 5725 5717 5711 5707 5704
5800 5796 5793 5790 5788 5788 5788 5787 5784 5782 5778 5775 5772 5770 5770 5770 5766 5766 5762 5758 5754 5750 5751 5750 5748 5746 5740 5738 5737 5733 5730 5731 5730 5730 5728 5730 5727 5724 5720 5715 5704 5699 5693
5796 5792 5790 5789 5787 5786 5785 5783 5780 5779 5773 5767 5766 5765 5760 5757 5758 5751 5750 5751 5750 5750 5748 5744 5740 5736 5733 5732 5730 5729 5726 5722 5721 5721 5717 5717 5717 5715 5716 5711 5703 5696 5690
5787 5784 5780 5779 5780 5777 5775 5774 5776 5770 5768 5765 5761 5754 5754 5750 5749 5740 5732 5730 5733 5736 5738 5736 5731 5730 5728 5725 5723 5722 5720 5718 5717 5712 5709 5705 5703 5704 5705 5702 5697 5692 5686
5776 5773 5774 5771 5769 5766 5765 5762 5757 5761 5759 5753 5747 5740 5734 5729 5725 5724 5723 5722 5722 5721 5723 5728 5728 5726 5724 5722 5720 5717 5717 5716 5712 5707 5704 5701 5695 5693 5694 5692 5691 5687 5684
5772 5767 5766 5762 5760 5758 5754 5749 5747 5740 5736 5736 5737 5729 5725 5719 5714 5711 5710 5712 5719 5715 5718 5722 5722 5720 5719 5717 5715 5712 5710 5706 5704 5702 5699 5695 5690 5688 5687 5689 5688 5684 5682
5765 5760 5755 5751 5749 5746 5744 5738 5735 5729 5724 5723 5724 5721 5714 5709 5706 5701 5697 5700 5705 5709 5714 5719 5722 5723 5723 5720 5714 5711 5706 5704 5702 5697 5694 5692 5690 5687 5684 5685 5684 5679 5676
5755 5748 5743 5740 5739 5737 5733 5725 5721 5714 5712 5711 5708 5702 5699 5697 5694 5691 5689 5687 5688 5692 5698 5702 5707 5711 5713 5715 5713 5707 5704 5703 5698 5694 5692 5690 5688 5686 5684 5681 5680 5678 5674
5746 5742 5739 5736 5725 5721 5717 5712 5706 5704 5697 5695 5691 5685 5678 5681 5678 5674 5673 5674 5674 5675 5680 5687 5693 5694 5696 5699 5701 5700 5701 5696 5697 5693 5690 5688 5685 5683 5683 5680 5677 5676 5671
5737 5732 5722 5718 5712 5707 5703 5700 5697 5690 5684 5678 5676 5675 5666 5662 5660 5660 5661 5662 5662 5664 5666 5672 5677 5682 5685 5688 5689 5690 5691 5692 5690 5692 5688 5686 5683 5680 5678 5677 5675 5672 5670
5722 5716 5711 5702 5698 5693 5690 5689 5680 5672 5665 5662 5660 5656 5650 5650 5648 5646 5647 5647 5649 5652 5655 5659 5663 5667 5673 5679 5681 5681 5680 5682 5684 5682 5683 5680 5677 5675 5672 5669 5667 5664 5664
5704 5700 5695 5692 5687 5679 5674 5670 5662 5653 5648 5645 5640 5637 5636 5635 5635 5635 5635 5636 5638 5640 5642 5646 5650 5654 5661 5667 5671 5673 5672 5673 5676 5679 5676 5673 5669 5667 5666 5664 5662 5660 5657
5689 5685 5682 5678 5672 5667 5660 5652 5645 5638 5633 5630 5627 5625 5622 5622 5622 5623 5624 5625 5626 5628 5632 5636 5640 5645 5652 5659 5662 5664 5667 5665 5664 5668 5667 5667 5663 5661 5659 5658 5657 5654 5651
5676 5673 5669 5664 5657 5652 5646 5640 5633 5627 5621 5621 5618 5616 5612 5610 5610 5611 5612 5613 5615 5618 5621 5625 5628 5634 5638 5648 5652 5656 5659 5657 5656 5655 5655 5661 5655 5654 5652 5651 5651 5650 5649